Location: Little Baddow
(51.7333°N, 0.5667°E)
Time: 05:36:30
(UTC+00:00)

USA 238 - Pass Details

Date: 08 November 2025
Orbit: 887 x 1324 km, 63.4° (Epoch: 24 November)

Event Time Altitude Azimuth Distance (km) Brightness Sun altitude
Exits shadow 03:33:09 56° 8° (N) 1,216 4.0 -32.7°
Drops below altitude 10° 03:38:56 10° 45° (NE) 2,969 6.7 -31.8°
Sets 03:41:49 0° 48° (NE) 3,998 7.6 -31.4°
